Regional Weather Roundup
Issued by NWS

Home | Current Version | Previous Version | Text Only | Print | Product List | Glossary On
Versions: 1 2 3 4 5 6 7 8 9 10 11 12 13 14 15 16 17 18 19 20 21 22 23 24 25 26 27 28 29 30 31 32 33 34 35 36 37 38 39 40 41 42 43 44 45 46 47 48
000
ASUS42 KFFC 300803
RWRGA
WEATHER ROUNDUP FOR GEORGIA
NATIONAL WEATHER SERVICE PEACHTREE CITY GA
400 AM EDT WED JUL 30 2014

NOTE: "FAIR" INDICATES FEW OR NO CLOUDS BELOW 12,000 FEET WITH NO
SIGNIFICANT WEATHER AND/OR OBSTRUCTIONS TO VISIBILITY.

* = USE WITH CAUTION. THE STATIONS MARKED WITH AN ASTERISK MAY NOT
REPORT WEATHER SUCH AS PRECIPITATION, FOG, OR THUNDER AND ARE NOT
QUALITY CONTROLLED BY NWS.

THE REMARK "TC" DENOTES TEMPERATURE READING IN DEGREES CELSIUS.

GAZ001>058-300900-
NORTH GEORGIA

CITY           SKY/WX    TMP DP  RH WIND       PRES   REMARKS
ATLANTA        CLEAR     62  53  72 NW7       30.03S
ATHENS         CLEAR     63  55  75 N3        30.02R
CHAMBLEE       CLEAR     59  52  77 CALM      30.03S
PEACHTREE CITY CLEAR     62  55  77 NW3       30.04S
ROME           CLEAR     59  53  80 CALM      30.05S
WEST ATLANTA   CLEAR     61  53  75 CALM      30.03S
GAINESVILLE    CLEAR     62  53  72 N3        30.05S
CARTERSVILLE   CLEAR     57  53  86 CALM      30.05F


CITY           SKY/WX    TMP DP  RH WIND       PRES   REMARKS
DALTON*        CLEAR     57  55  94 CALM      30.06S
MARIETTA       CLEAR     62  54  75 NW6       30.04S
$$

GAZ059>098-102>109-300900-
CENTRAL GEORGIA

CITY           SKY/WX    TMP DP  RH WIND       PRES   REMARKS
AUGUSTA-BUSH   CLEAR     66  61  84 NW3       29.96R
AUGUSTA-DANIEL CLEAR     73  60  63 N9        29.98R
COLUMBUS       CLEAR     67  54  63 N3        30.02R
MACON          CLEAR     62  61  96 W5        29.99S
ROBINS AFB     CLEAR     64  61  88 N8        29.99S


CITY           SKY/WX    TMP DP  RH WIND       PRES   REMARKS
LAGRANGE*      CLEAR     61  58  91 CALM      30.04S
SYLVANIA*      PTCLDY    68  68 100 CALM      29.96R
MILLEDGEVILLE* CLEAR     64  54  68 CALM      29.99R
$$

GAZ099>101-110>166-300900-
SOUTH GEORGIA

CITY           SKY/WX    TMP DP  RH WIND       PRES   REMARKS
SAVANNAH       CLEAR     74  65  73 CALM      29.94F
VALDOSTA       CLEAR     70  62  76 CALM      29.97R
ALMA           MOCLDY    70  61  73 NW6       29.95S
ST SIMONS      CLOUDY    79  73  82 W5        29.93S
FT STEWART     CLOUDY    69  66  91 CALM      29.93S
ALBANY         CLEAR     66  61  84 CALM      30.01R
HUNTER AFB     CLEAR     73  69  87 W5        29.92S
MOODY AFB      CLEAR     67  66  97 CALM      29.96S
BRUNSWICK      CLOUDY    77  72  83 CALM      29.94S


CITY           SKY/WX    TMP DP  RH WIND       PRES   REMARKS
BAINBRIDGE*    PTCLDY    72  68  88 NW5       29.99S
MOULTRIE*      CLEAR     68  64  88 CALM      29.99S
VIDALIA*         N/A     72  63  73 N8        29.96S
WAYCROSS*      PTCLDY    72  64  76 CALM      29.95S
DOUGLAS*       MOCLDY    68  63  83 CALM      29.98R
$$


USA.gov is the U.S. government's official web portal to all federal, state and local government web resources and services.